Location: Izdebno
(52.6670°N, 16.2170°E)
Time: 11:31:04
(UTC+02:00)

Transit 2A - Visible Passes

Search period start: 22 April 2024 00:00
Search period end: 02 May 2024 00:00
Orbit: 596 x 956 km, 66.7° (Epoch: 21 April)

Date Brightness Start Highest point End Pass type
(mag) Time Alt. Az. Time Alt. Az. Time Alt. Az.
27 Apr 8.3 04:31:56 10° SE 04:34:00 13° ESE 04:36:08 10° ENE visible
30 Apr 7.5 04:27:17 10° S 04:31:04 27° ESE 04:35:08 10° NE visible
01 May 7.9 03:53:00 10° SSE 03:56:10 19° ESE 03:59:31 10° ENE visible
